Location: Avully
(45.9633°N, 6.0228°E)
Time: 05:20:08
(UTC+00:00)

Cosmos 2360 Rocket - Pass Details

Date: 17 August 2024
Orbit: 834 x 843 km, 71.0° (Epoch: 16 September)

Event Time Altitude Azimuth Distance (km) Brightness Sun altitude
Exits shadow 23:04:57 65° 19° (NNE) 928 2.5 -30.5°
Drops below altitude 10° 23:09:44 10° 26° (NNE) 2,467 5.2 -30.6°
Sets 23:12:11 0° 27° (NNE) 3,405 6.1 -30.7°
